Knox, IN

1:37 PM CDT on June 28, 2017 (GMT -0500)
Starke County

Weather History for KOXI - December, 2012

Change the Weather History Date:

Friday, December 21, 2012

  Actual Average (KRCR) Record (KRCR)
Temperature  
Mean Temperature 28 °F -  
Max Temperature 32 °F 34 °F 53 °F (2015)
Min Temperature 25 °F 18 °F 19 °F (2016)
Degree Days  
Heating Degree Days 36    
Moisture  
Dew Point 27 °F    
Average Humidity 89    
Maximum Humidity 100    
Minimum Humidity 85    
Precipitation  
Precipitation 0.00 in - - ()
Sea Level Pressure  
Sea Level Pressure 29.81 in    
Wind  
Wind Speed 22 mph (WNW)    
Max Wind Speed 29 mph    
Max Gust Speed 40 mph    
Visibility 6 miles    
Events      
Averages and records for this station are not official NWS values.
T = Trace of Precipitation, MM = Missing Value Source: NWS Daily Summary

Daily Weather History Graph

Daily Weather History Graph

Search for Another Location

Airport or City:

Trip Planner

Search our weather history database for the weather conditions in past years. The results will help you decide how hot, cold, wet, or windy it might be!

Date:

Astronomy

Dec. 21, 2012 Rise Set
Actual Time 7:09 AM CST 4:20 PM CST
Civil Twilight 6:38 AM CST 4:52 PM CST
Nautical Twilight 6:03 AM CST 5:26 PM CST
Astronomical Twilight 5:29 AM CST 6:00 PM CST
Moon 12:09 PM CST (12/21) 12:53 AM CST (12/21)
Length of Visible Light 10h 14m
Length of Day
9h 11m
Waxing Gibbous, 65% of the Moon is Illuminated
Dec 21
Waxing Gibbous
Dec 28
Full
Jan 4
Last Quarter
Jan 11
New
Jan 18
First Quarter

Hourly Weather History & Observations

Time (CST) Temp. Windchill Dew Point Humidity Pressure Visibility Wind Dir Wind Speed Gust Speed Precip Events Conditions
12:15 AM 32.9 °F 20.1 °F 32.0 °F 96% 29.32 in 2.0 mi WNW 24.2 mph 33.4 mph N/A   Overcast
12:35 AM 32.9 °F 19.6 °F 32.0 °F 96% 29.34 in 1.8 mi WNW 26.5 mph 33.4 mph N/A   Overcast
12:55 AM 32.9 °F 21.0 °F 32.0 °F 96% 29.35 in 2.5 mi WNW 20.7 mph 32.2 mph N/A   Overcast
1:15 AM 32.7 °F 20.4 °F 32.0 °F 97% 29.37 in 1.5 mi WNW 21.9 mph 28.8 mph N/A   Overcast
1:35 AM 32.4 °F 20.0 °F 32.0 °F 99% 29.39 in 1.0 mi WNW 21.9 mph 29.9 mph N/A   Overcast
1:55 AM 32.2 °F 20.4 °F 32.0 °F 99% 29.41 in 1.0 mi WNW 19.6 mph 27.6 mph N/A   Overcast
2:15 AM 32.0 °F 20.5 °F 32.0 °F 100% 29.43 in 1.0 mi WNW 18.4 mph 25.3 mph N/A   Overcast
2:35 AM 32.0 °F 20.8 °F 32.0 °F 100% 29.44 in 1.0 mi WNW 17.3 mph 25.3 mph N/A   Overcast
2:55 AM 32.2 °F 20.7 °F 32.0 °F 99% 29.46 in 1.0 mi WNW 18.4 mph 24.2 mph N/A   Overcast
3:15 AM 32.2 °F 20.7 °F 32.0 °F 99% 29.48 in 1.0 mi WNW 18.4 mph 27.6 mph N/A   Overcast
3:35 AM 32.0 °F 18.6 °F 32.0 °F 100% 29.48 in 1.0 mi WNW 25.3 mph 31.1 mph N/A   Overcast
3:55 AM 32.0 °F 19.8 °F 32.0 °F 100% 29.50 in 1.0 mi WNW 20.7 mph 25.3 mph N/A   Overcast
4:15 AM 32.0 °F 19.2 °F 31.6 °F 99% 29.51 in 1.2 mi WNW 23.0 mph 29.9 mph N/A   Overcast
4:35 AM 32.0 °F 18.4 °F 31.3 °F 97% 29.53 in 1.0 mi WNW 26.5 mph 33.4 mph N/A   Overcast
4:55 AM 31.8 °F 19.0 °F 31.1 °F 97% 29.54 in 1.8 mi WNW 23.0 mph 31.1 mph N/A   Overcast
5:15 AM 31.8 °F 18.4 °F 29.8 °F 92% 29.56 in 1.8 mi WNW 25.3 mph 40.3 mph N/A   Overcast
5:35 AM 31.6 °F 17.9 °F 29.1 °F 90% 29.57 in 2.0 mi WNW 26.5 mph 34.5 mph N/A   Overcast
5:55 AM 31.6 °F 17.4 °F 28.8 °F 89% 29.59 in 2.5 mi WNW 28.8 mph 38.0 mph N/A   Overcast
6:15 AM 31.6 °F 18.7 °F 28.4 °F 88% 29.61 in 3.0 mi WNW 23.0 mph 34.5 mph N/A   Overcast
6:35 AM 31.3 °F 17.9 °F 28.2 °F 88% 29.63 in 2.5 mi WNW 24.2 mph 34.5 mph N/A   Overcast
6:55 AM 31.1 °F 17.7 °F 28.2 °F 89% 29.64 in 2.5 mi NW 24.2 mph 36.8 mph N/A   Overcast
9:55 AM - - - N/A% 29.76 in - NW 23.0 mph - N/A   Unknown
10:15 AM 30.9 °F 17.2 °F 27.3 °F 86% 29.77 in 4.0 mi NW 25.3 mph 32.2 mph N/A   Overcast
10:35 AM 30.9 °F 17.5 °F 27.3 °F 86% 29.78 in 4.0 mi NW 24.2 mph 32.2 mph N/A   Overcast
10:55 AM 30.7 °F 17.2 °F 27.1 °F 86% 29.79 in 4.0 mi NW 24.2 mph 33.4 mph N/A   Overcast
11:15 AM 30.7 °F 16.7 °F 26.8 °F 85% 29.79 in 5.0 mi NW 26.5 mph 39.1 mph N/A   Overcast
11:35 AM 30.6 °F 17.3 °F 26.6 °F 85% 29.80 in 5.0 mi NW 23.0 mph 36.8 mph N/A   Overcast
11:55 AM 30.2 °F 16.2 °F 26.4 °F 86% 29.81 in 3.0 mi NW 25.3 mph 39.1 mph N/A   Overcast
12:15 PM 30.2 °F 16.2 °F 26.4 °F 86% 29.82 in 3.0 mi NW 25.3 mph 36.8 mph N/A   Overcast
12:35 PM 30.4 °F 16.5 °F 26.6 °F 86% 29.82 in 7.0 mi NW 25.3 mph 31.1 mph N/A   Overcast
12:55 PM 30.7 °F 16.7 °F 26.8 °F 85% 29.83 in 3.0 mi NW 26.5 mph 33.4 mph N/A   Overcast
1:15 PM 30.7 °F 17.5 °F 27.1 °F 86% 29.85 in 4.0 mi NW 23.0 mph 29.9 mph N/A   Overcast
1:35 PM 30.6 °F 16.7 °F 26.8 °F 86% 29.86 in 4.0 mi NW 25.3 mph 31.1 mph N/A   Overcast
1:55 PM 30.0 °F 16.9 °F 26.2 °F 86% 29.88 in 4.0 mi NW 21.9 mph 33.4 mph N/A   Overcast
2:15 PM 29.5 °F 15.8 °F 25.3 °F 85% 29.89 in 7.0 mi WNW 23.0 mph 29.9 mph N/A   Overcast
2:35 PM 29.3 °F 15.3 °F 25.3 °F 85% 29.90 in 7.0 mi WNW 24.2 mph 32.2 mph N/A   Overcast
2:55 PM 29.3 °F 15.0 °F 25.2 °F 85% 29.92 in 7.0 mi NW 25.3 mph 32.2 mph N/A   Overcast
3:15 PM 29.3 °F 14.7 °F 25.3 °F 85% 29.93 in 7.0 mi NW 26.5 mph 31.1 mph N/A   Overcast
3:35 PM 29.3 °F 16.2 °F 25.3 °F 85% 29.94 in 10.0 mi NW 20.7 mph 28.8 mph N/A   Overcast
3:55 PM 29.3 °F 15.6 °F 25.5 °F 86% 29.95 in 10.0 mi NW 23.0 mph 28.8 mph N/A   Overcast
4:15 PM 29.3 °F 16.2 °F 25.5 °F 86% 29.97 in 10.0 mi WNW 20.7 mph 26.5 mph N/A   Overcast
4:35 PM 28.9 °F 17.3 °F 25.0 °F 85% 29.98 in 10.0 mi WNW 16.1 mph 25.3 mph N/A   Overcast
4:55 PM 28.4 °F 15.8 °F 24.8 °F 86% 29.99 in 10.0 mi WNW 18.4 mph 24.2 mph N/A   Overcast
5:15 PM 28.4 °F 16.2 °F 24.8 °F 86% 30.01 in 10.0 mi WNW 17.3 mph 27.6 mph N/A   Overcast
5:35 PM 28.0 °F 15.3 °F 24.4 °F 86% 30.01 in 10.0 mi WNW 18.4 mph 24.2 mph N/A   Overcast
5:55 PM 27.5 °F 14.6 °F 24.1 °F 87% 30.02 in 10.0 mi WNW 18.4 mph 25.3 mph N/A   Overcast
6:15 PM 27.5 °F 14.6 °F 23.9 °F 86% 30.03 in 10.0 mi WNW 18.4 mph 26.5 mph N/A   Overcast
6:35 PM 27.5 °F 14.2 °F 23.9 °F 86% 30.04 in 10.0 mi WNW 19.6 mph 25.3 mph N/A   Overcast
6:55 PM 27.5 °F 14.2 °F 23.9 °F 86% 30.05 in 10.0 mi WNW 19.6 mph - N/A   Overcast
7:15 PM 27.5 °F 14.6 °F 23.7 °F 86% 30.05 in 10.0 mi WNW 18.4 mph 26.5 mph N/A   Overcast
7:35 PM 27.3 °F 14.4 °F 23.5 °F 86% 30.05 in 10.0 mi WNW 18.4 mph 23.0 mph N/A   Overcast
7:55 PM 27.3 °F 15.6 °F 23.5 °F 86% 30.07 in 10.0 mi WNW 15.0 mph 21.9 mph N/A   Overcast
8:15 PM 27.5 °F 15.4 °F 23.7 °F 86% 30.07 in 10.0 mi WNW 16.1 mph 19.6 mph N/A   Overcast
8:35 PM 27.5 °F 15.9 °F 23.9 °F 86% 30.07 in 10.0 mi NW 15.0 mph 21.9 mph N/A   Overcast
8:55 PM 27.5 °F 15.0 °F 23.9 °F 86% 30.08 in 10.0 mi WNW 17.3 mph - N/A   Overcast
9:15 PM 27.5 °F 14.6 °F 23.9 °F 86% 30.09 in 10.0 mi WNW 18.4 mph 25.3 mph N/A   Overcast
9:35 PM 27.3 °F 15.6 °F 23.9 °F 87% 30.09 in 10.0 mi WNW 15.0 mph - N/A   Overcast
9:55 PM 27.1 °F 15.9 °F 23.7 °F 87% 30.10 in 10.0 mi WNW 13.8 mph - N/A   Overcast
10:15 PM 27.1 °F 14.9 °F 23.7 °F 87% 30.10 in 10.0 mi WNW 16.1 mph - N/A   Overcast
10:35 PM 27.1 °F 14.5 °F 23.5 °F 86% 30.10 in 10.0 mi WNW 17.3 mph - N/A   Overcast
10:55 PM 27.0 °F 15.2 °F 23.5 °F 87% 30.11 in 10.0 mi West 15.0 mph - N/A   Overcast
11:15 PM 26.6 °F 16.8 °F 23.2 °F 87% 30.11 in 10.0 mi West 10.4 mph - N/A   Overcast
11:35 PM 25.7 °F 15.7 °F 22.3 °F 87% 30.11 in 10.0 mi West 10.4 mph - N/A   Overcast
11:55 PM 25.3 °F 14.7 °F 21.9 °F 87% 30.11 in 10.0 mi West 11.5 mph - N/A   Overcast